F4NFR-13 Weather Reports


time (UTC)temp
C
wind
direction
speed
KPH
gust
KPH
rain 1hr
cm
rain 24hr
cm
rain mn
cm
humidity
%
barometer
mb
20260510065411 12 17 17.7 22.5 0.00 0.00 0.00 66 1023.2
20260510064908 12 18 22.5 30.6 0.00 0.00 0.00 67 1022.8
20260510064405 12 78 12.9 17.7 0.00 0.00 0.00 68 1022.8
20260510063903 12 11 24.1 30.6 0.00 0.00 0.00 68 1022.8
20260510063400 12 91 25.7 46.7 0.00 0.00 0.00 69 1023.2
20260510062858 12 79 12.9 22.5 0.00 0.00 0.00 70 1023.2
20260510062355 12 26 24.1 30.6 0.00 0.00 0.00 71 1023.2
20260510061853 12 23 24.1 27.4 0.00 0.00 0.00 71 1023.2
20260510061351 12 62 12.9 17.7 0.00 0.00 0.00 73 1023.2
20260510060849 12 79 11.3 14.5 0.00 0.00 0.00 74 1023.2
20260510060346 12 40 20.9 25.7 0.00 0.00 0.00 76 1023.2
20260510055843 12 52 12.9 17.7 0.00 0.00 0.00 77 1023.2
20260510055343 12 38 17.7 25.7 0.00 0.00 0.00 79 1023.2
20260510054839 12 37 24.1 27.4 0.00 0.00 0.00 80 1023.2
20260510054336 12 105 17.7 25.7 0.00 0.00 0.00 81 1023.2
20260510053834 12 359 19.3 22.5 0.00 0.00 0.00 82 1023.2
20260510053331 11 39 14.5 16.1 0.00 0.00 0.00 83 1023.2
20260510052829 11 34 14.5 20.9 0.00 0.00 0.00 84 1023.2
20260510052326 11 22 12.9 19.3 0.00 0.00 0.00 85 1023.2
20260510051824 11 43 16.1 19.3 0.00 0.00 0.00 84 1023.5
20260510051321 11 56 17.7 20.9 0.00 0.00 0.00 84 1023.5
20260510050317 11 14 8.0 9.7 0.00 0.00 0.00 85 1023.5
20260510045814 11 33 12.9 14.5 0.00 0.00 0.00 85 1023.8
20260510045312 11 45 12.9 16.1 0.00 0.00 0.00 85 1023.8
20260510044810 11 19 17.7 19.3 0.00 0.00 0.00 85 1023.8
20260510044308 11 34 12.9 19.3 0.00 0.00 0.00 85 1023.8
20260510043805 11 21 11.3 14.5 0.00 0.00 0.00 85 1023.8
20260510043303 11 4 12.9 14.5 0.00 0.00 0.00 84 1023.8
20260510042800 11 42 11.3 14.5 0.00 0.00 0.00 84 1023.5
20260510042258 11 23 11.3 11.3 0.00 0.00 0.00 84 1023.5
20260510041756 11 60 9.7 14.5 0.00 0.00 0.00 84 1023.5
20260510041253 11 29 9.7 9.7 0.00 0.00 0.00 84 1023.8
20260510040751 11 47 9.7 14.5 0.00 0.00 0.00 83 1023.8
20260510040253 11 65 16.1 19.3 0.00 0.00 0.00 83 1023.8
20260510035244 11 104 8.0 9.7 0.00 0.00 0.00 82 1023.5
20260510034742 11 34 19.3 22.5 0.00 0.00 0.00 82 1023.5
20260510034240 11 50 14.5 16.1 0.00 0.00 0.00 81 1023.8
20260510033738 11 34 11.3 14.5 0.00 0.00 0.00 81 1023.8
20260510033235 11 41 11.3 14.5 0.00 0.00 0.00 80 1023.8
20260510032733 11 25 8.0 11.3 0.00 0.00 0.00 81 1023.8
20260510032230 11 66 11.3 14.5 0.00 0.00 0.00 80 1023.5
20260510031727 11 40 8.0 14.5 0.00 0.00 0.00 80 1023.8
20260510030722 11 65 14.5 17.7 0.00 0.00 0.00 79 1023.5
20260510030220 11 29 11.3 14.5 0.00 0.00 0.00 78 1023.5
20260510025717 11 359 9.7 14.5 0.00 0.00 0.00 78 1023.5
20260510025215 11 64 9.7 11.3 0.00 0.00 0.00 77 1023.5
20260510024210 11 56 8.0 11.3 0.00 0.00 0.00 76 1023.5
20260510023708 11 30 11.3 14.5 0.00 0.00 0.00 76 1023.5
20260510023206 11 54 4.8 8.0 0.00 0.00 0.00 76 1023.5
20260510022703 11 57 11.3 17.7 0.00 0.00 0.00 76 1023.5
20260510022201 11 65 9.7 11.3 0.00 0.00 0.00 76 1023.5
20260510021700 11 66 9.7 11.3 0.00 0.00 0.00 76 1023.5
20260510021156 11 35 11.3 12.9 0.00 0.00 0.00 76 1023.5
20260510020654 11 56 14.5 17.7 0.00 0.00 0.00 76 1023.5
20260510020151 11 74 11.3 17.7 0.00 0.00 0.00 76 1023.8
20260510015649 11 28 9.7 11.3 0.00 0.00 0.00 76 1023.8
20260510014644 11 91 9.7 14.5 0.00 0.00 0.00 75 1023.8
20260510014142 11 51 4.8 8.0 0.00 0.00 0.00 75 1023.8
20260510013639 11 90 9.7 14.5 0.00 0.00 0.00 75 1023.8
20260510013137 11 42 12.9 17.7 0.00 0.00 0.00 75 1023.8
20260510012635 11 57 11.3 14.5 0.00 0.00 0.00 74 1023.8
20260510012133 11 60 6.4 9.7 0.00 0.00 0.00 75 1023.8
20260510011631 11 69 9.7 11.3 0.00 0.00 0.00 74 1023.8
20260510011127 11 63 14.5 17.7 0.00 0.00 0.00 74 1024.2
20260510010625 11 50 11.3 14.5 0.00 0.00 0.00 75 1024.2
20260510010123 11 91 4.8 11.3 0.00 0.00 0.00 75 1024.2
20260510005621 11 89 9.7 14.5 0.00 0.00 0.00 75 1024.2
20260510004616 11 73 6.4 9.7 0.00 0.00 0.00 76 1024.2
20260510004114 11 65 4.8 8.0 0.00 0.00 0.00 76 1024.2
20260510003611 11 90 9.7 11.3 0.00 0.00 0.00 76 1024.2
20260510003109 11 79 6.4 11.3 0.00 0.00 0.00 76 1024.5
20260510002607 11 37 8.0 11.3 0.00 0.00 0.00 76 1024.5
20260510002104 11 91 3.2 9.7 0.00 0.00 0.00 76 1024.5
20260510001602 11 61 6.4 12.9 0.00 0.00 0.00 76 1024.5
20260510001059 11 45 9.7 14.5 0.00 0.00 0.00 75 1024.9
20260510000557 11 74 9.7 14.5 0.00 0.00 0.00 74 1024.9
20260510000055 11 63 4.8 8.0 0.00 0.00 0.00 75 1024.9
20260509235553 11 100 11.3 16.1 0.00 0.00 0.00 75 1024.9
20260509235051 12 80 9.7 14.5 0.00 0.00 0.00 74 1024.9
20260509234549 12 79 6.4 9.7 0.00 0.00 0.00 74 1024.9
20260509234047 12 95 9.7 12.9 0.00 0.00 0.00 73 1024.9
20260509233544 12 46 9.7 11.3 0.00 0.00 0.00 72 1024.9
20260509233042 12 67 9.7 16.1 0.00 0.00 0.00 71 1024.9
20260509232540 12 64 11.3 11.3 0.00 0.00 0.00 73 1024.9
20260509232038 12 71 4.8 6.4 0.00 0.00 0.00 73 1024.9
20260509231535 12 70 9.7 14.5 0.00 0.00 0.00 72 1024.9
20260509230530 12 51 9.7 11.3 0.00 0.00 0.00 72 1024.9
20260509230028 12 35 6.4 14.5 0.00 0.00 0.00 73 1024.9
20260509225525 12 70 4.8 6.4 0.00 0.00 0.00 73 1024.9
20260509225023 12 60 8.0 11.3 0.00 0.00 0.00 73 1024.9
20260509224521 12 67 8.0 11.3 0.00 0.00 0.00 74 1024.9
20260509224018 12 63 6.4 9.7 0.00 0.00 0.00 74 1024.9
20260509223516 12 39 6.4 14.5 0.00 0.00 0.00 74 1024.9
20260509222510 12 60 8.0 11.3 0.00 0.00 0.00 74 1024.9
20260509222008 12 81 3.2 6.4 0.00 0.00 0.00 74 1024.9
20260509221505 12 25 3.2 6.4 0.00 0.00 0.00 73 1024.9
20260509221003 12 65 3.2 4.8 0.00 0.00 0.00 74 1024.9
20260509220500 12 80 11.3 17.7 0.00 0.00 0.00 73 1024.9
20260509215958 12 62 4.8 6.4 0.00 0.00 0.00 73 1024.9
20260509215456 12 77 3.2 8.0 0.00 0.00 0.00 73 1024.9
20260509214953 12 68 4.8 6.4 0.00 0.00 0.00 73 1024.9
20260509214450 12 72 6.4 9.7 0.00 0.00 0.00 73 1024.9
20260509213948 12 38 3.2 4.8 0.00 0.00 0.00 72 1024.9
20260509213445 12 65 4.8 9.7 0.00 0.00 0.00 72 1024.9
20260509212943 12 91 3.2 9.7 0.00 0.00 0.00 72 1024.9
20260509212441 12 40 8.0 9.7 0.00 0.00 0.00 72 1024.9
20260509211939 12 46 4.8 6.4 0.00 0.00 0.00 72 1024.9
20260509211436 12 76 6.4 9.7 0.00 0.00 0.00 70 1024.9
20260509210934 12 89 4.8 6.4 0.00 0.00 0.00 70 1024.9
20260509210431 12 44 6.4 6.4 0.00 0.00 0.00 70 1024.9
20260509205929 12 62 6.4 11.3 0.00 0.00 0.00 68 1024.9
20260509205427 12 52 12.9 14.5 0.00 0.00 0.00 68 1024.9
20260509204925 12 27 9.7 16.1 0.00 0.00 0.00 68 1024.9
20260509204422 12 28 6.4 9.7 0.00 0.00 0.00 68 1024.9
20260509203920 12 81 3.2 6.4 0.00 0.00 0.00 67 1024.9
20260509203418 12 90 4.8 9.7 0.00 0.00 0.00 66 1024.9
20260509202915 12 110 8.0 11.3 0.00 0.00 0.00 65 1024.9
20260509202413 12 35 6.4 9.7 0.00 0.00 0.00 64 1024.9
20260509201911 12 76 8.0 11.3 0.00 0.00 0.00 64 1024.9
20260509201410 12 37 9.7 14.5 0.00 0.00 0.00 64 1024.9
20260509201408 12 37 9.7 14.5 0.00 0.00 0.00 64 1024.9
20260509200906 12 71 6.4 11.3 0.00 0.00 0.00 64 1024.9
20260509200403 12 74 3.2 4.8 0.00 0.00 0.00 64 1024.5
20260509195901 12 71 4.8 9.7 0.00 0.00 0.00 64 1024.5
20260509195359 12 96 3.2 4.8 0.00 0.00 0.00 64 1024.5
20260509194856 12 96 3.2 4.8 0.00 0.00 0.00 63 1024.5
20260509194353 12 91 3.2 4.8 0.00 0.00 0.00 63 1024.5
20260509193851 13 57 1.6 3.2 0.00 0.00 0.00 61 1024.5
20260509193348 13 79 3.2 4.8 0.00 0.00 0.00 61 1024.5
20260509192846 13 55 4.8 4.8 0.00 0.00 0.00 60 1024.5
20260509192343 13 63 4.8 6.4 0.00 0.00 0.00 59 1024.5
20260509191840 13 35 6.4 11.3 0.00 0.00 0.00 58 1024.5
20260509191338 13 64 6.4 9.7 0.00 0.00 0.00 57 1024.2
20260509190836 15 69 9.7 14.5 0.00 0.00 0.00 56 1024.2
20260509190334 15 75 11.3 12.9 0.00 0.00 0.00 56 1024.2
20260509185831 15 38 9.7 11.3 0.00 0.00 0.00 55 1024.2
20260509185328 15 63 8.0 11.3 0.00 0.00 0.00 55 1024.2
20260509184826 15 80 6.4 9.7 0.00 0.00 0.00 55 1024.2
20260509184323 15 21 12.9 14.5 0.00 0.00 0.00 55 1024.2
20260509183822 15 90 11.3 14.5 0.00 0.00 0.00 55 1024.2
20260509183319 15 43 14.5 14.5 0.00 0.00 0.00 55 1024.2
20260509182817 16 57 14.5 19.3 0.00 0.00 0.00 54 1024.2
20260509182314 16 59 14.5 17.7 0.00 0.00 0.00 54 1023.8
20260509181812 16 81 4.8 8.0 0.00 0.00 0.00 55 1023.8
20260509181309 16 46 8.0 9.7 0.00 0.00 0.00 54 1023.8
20260509180807 16 75 9.7 11.3 0.00 0.00 0.00 53 1023.8
20260509180304 16 69 9.7 16.1 0.00 0.00 0.00 53 1023.8
20260509175802 16 28 16.1 25.7 0.00 0.00 0.00 53 1023.8
20260509175300 16 89 12.9 19.3 0.00 0.00 0.00 52 1023.8
20260509174758 17 57 14.5 19.3 0.00 0.00 0.00 52 1023.8
20260509173753 17 62 19.3 24.1 0.00 0.00 0.00 52 1023.8
20260509173250 17 64 14.5 17.7 0.00 0.00 0.00 53 1023.8
20260509172748 17 75 9.7 11.3 0.00 0.00 0.00 52 1024.2
20260509172246 17 67 17.7 19.3 0.00 0.00 0.00 52 1024.2
20260509171743 17 65 17.7 20.9 0.00 0.00 0.00 52 1024.2
20260509171241 17 80 11.3 14.5 0.00 0.00 0.00 53 1024.2
20260509170237 17 60 16.1 17.7 0.00 0.00 0.00 51 1024.2
20260509165734 17 45 12.9 16.1 0.00 0.00 0.00 52 1024.2
20260509165232 17 27 11.3 14.5 0.00 0.00 0.00 52 1023.8
20260509164729 17 38 11.3 14.5 0.00 0.00 0.00 52 1024.2
20260509164227 17 54 19.3 24.1 0.00 0.00 0.00 53 1023.8
20260509163724 17 39 11.3 16.1 0.00 0.00 0.00 53 1023.8
20260509163222 17 34 14.5 17.7 0.00 0.00 0.00 53 1023.8
20260509162720 17 47 9.7 12.9 0.00 0.00 0.00 53 1023.8
20260509162218 17 51 12.9 17.7 0.00 0.00 0.00 53 1023.8
20260509161715 17 26 24.1 30.6 0.00 0.00 0.00 53 1023.8
20260509161212 17 44 9.7 16.1 0.00 0.00 0.00 52 1023.8
20260509160710 18 40 17.7 22.5 0.00 0.00 0.00 51 1024.2
20260509160208 20 56 9.7 12.9 0.00 0.00 0.00 50 1023.8
20260509155203 18 33 12.9 17.7 0.00 0.00 0.00 51 1023.8
20260509154700 18 27 12.9 24.1 0.00 0.00 0.00 52 1023.8
20260509154158 18 67 12.9 22.5 0.00 0.00 0.00 52 1024.2
20260509153153 18 39 14.5 19.3 0.00 0.00 0.00 51 1024.2
20260509152148 18 66 11.3 14.5 0.00 0.00 0.00 51 1024.2
20260509151646 18 24 14.5 16.1 0.00 0.00 0.00 51 1024.2
20260509151144 18 31 20.9 27.4 0.00 0.00 0.00 50 1024.2
20260509150642 18 24 11.3 11.3 0.00 0.00 0.00 51 1024.2
20260509150139 20 46 11.3 14.5 0.00 0.00 0.00 51 1024.2
20260509145637 20 101 11.3 17.7 0.00 0.00 0.00 50 1024.2
20260509145135 20 41 14.5 20.9 0.00 0.00 0.00 50 1024.2
20260509144632 21 93 9.7 17.7 0.00 0.00 0.00 50 1024.2
20260509144130 21 76 9.7 9.7 0.00 0.00 0.00 49 1024.2
20260509143628 21 73 14.5 16.1 0.00 0.00 0.00 49 1023.8
20260509143125 21 35 17.7 24.1 0.00 0.00 0.00 49 1023.8
20260509142622 20 45 8.0 11.3 0.00 0.00 0.00 50 1023.8
20260509142119 20 85 8.0 11.3 0.00 0.00 0.00 50 1023.8
20260509141617 20 82 6.4 11.3 0.00 0.00 0.00 50 1023.8
20260509141114 20 86 12.9 17.7 0.00 0.00 0.00 47 1023.8
20260509140612 21 42 14.5 19.3 0.00 0.00 0.00 46 1023.8
20260509135607 20 96 9.7 11.3 0.00 0.00 0.00 48 1023.8
20260509135105 20 33 9.7 12.9 0.00 0.00 0.00 48 1024.2
20260509134100 21 84 9.7 11.3 0.00 0.00 0.00 44 1024.2
20260509133558 22 99 6.4 8.0 0.00 0.00 0.00 45 1024.2
20260509132553 21 139 9.7 11.3 0.00 0.00 0.00 45 1024.2
20260509131549 20 90 12.9 17.7 0.00 0.00 0.00 46 1024.2
20260509131046 21 29 9.7 16.1 0.00 0.00 0.00 45 1024.2
20260509130544 21 65 6.4 8.0 0.00 0.00 0.00 44 1024.2
20260509130042 21 90 3.2 9.7 0.00 0.00 0.00 46 1024.2
20260509125540 21 90 6.4 8.0 0.00 0.00 0.00 46 1024.2
20260509125037 20 74 8.0 12.9 0.00 0.00 0.00 47 1024.5
20260509124534 21 41 19.3 25.7 0.00 0.00 0.00 45 1024.5
20260509124032 22 90 8.0 17.7 0.00 0.00 0.00 44 1024.5
20260509123530 22 133 6.4 9.7 0.00 0.00 0.00 45 1024.5
20260509123027 21 66 4.8 9.7 0.00 0.00 0.00 45 1024.5
20260509122524 21 99 6.4 9.7 0.00 0.00 0.00 46 1024.5
20260509121518 21 57 9.7 9.7 0.00 0.00 0.00 47 1024.9
20260509121015 20 85 8.0 9.7 0.00 0.00 0.00 46 1024.9
20260509120513 20 76 9.7 11.3 0.00 0.00 0.00 48 1024.9
20260509120011 21 61 8.0 11.3 0.00 0.00 0.00 48 1024.9
20260509115509 21 72 6.4 9.7 0.00 0.00 0.00 47 1024.9
20260509115006 21 78 9.7 11.3 0.00 0.00 0.00 48 1024.9
20260509114001 21 70 11.3 12.9 0.00 0.00 0.00 46 1024.9
20260509113459 21 82 14.5 17.7 0.00 0.00 0.00 47 1024.9
20260509112956 21 91 11.3 14.5 0.00 0.00 0.00 47 1025.2
20260509112454 21 74 9.7 11.3 0.00 0.00 0.00 49 1025.2
20260509111952 21 93 14.5 17.7 0.00 0.00 0.00 48 1025.2
20260509110946 21 44 9.7 14.5 0.00 0.00 0.00 48 1025.2
20260509110444 20 26 14.5 19.3 0.00 0.00 0.00 48 1025.2
20260509105942 20 34 14.5 19.3 0.00 0.00 0.00 49 1025.6
20260509105439 20 87 9.7 11.3 0.00 0.00 0.00 48 1025.6
20260509104936 20 101 9.7 11.3 0.00 0.00 0.00 47 1025.6
20260509104434 20 107 14.5 20.9 0.00 0.00 0.00 48 1025.6
20260509103931 20 93 9.7 11.3 0.00 0.00 0.00 48 1025.6
20260509103429 20 100 6.4 9.7 0.00 0.00 0.00 48 1025.6
20260509102927 21 114 9.7 14.5 0.00 0.00 0.00 49 1025.6
20260509101922 20 65 9.7 14.5 0.00 0.00 0.00 48 1025.9
20260509101420 20 109 14.5 22.5 0.00 0.00 0.00 47 1025.6
20260509100917 20 157 14.5 17.7 0.00 0.00 0.00 48 1025.6
20260509100414 20 75 16.1 22.5 0.00 0.00 0.00 48 1025.9
20260509095912 20 35 14.5 19.3 0.00 0.00 0.00 47 1025.6
20260509094907 20 32 9.7 12.9 0.00 0.00 0.00 48 1025.6
20260509094404 20 43 9.7 14.5 0.00 0.00 0.00 48 1025.6
20260509093903 20 73 9.7 12.9 0.00 0.00 0.00 47 1025.6
20260509093400 20 95 11.3 14.5 0.00 0.00 0.00 47 1025.6
20260509092857 20 79 4.8 8.0 0.00 0.00 0.00 47 1025.6
20260509092355 18 98 11.3 14.5 0.00 0.00 0.00 48 1025.6
20260509091852 18 24 17.7 19.3 0.00 0.00 0.00 49 1025.6
20260509091350 18 77 14.5 17.7 0.00 0.00 0.00 48 1025.9
20260509090848 18 59 9.7 14.5 0.00 0.00 0.00 48 1025.6
20260509090346 18 107 17.7 20.9 0.00 0.00 0.00 48 1025.6
20260509085844 18 69 11.3 14.5 0.00 0.00 0.00 49 1025.9
20260509085341 18 79 4.8 8.0 0.00 0.00 0.00 49 1025.6
20260509084839 18 99 11.3 12.9 0.00 0.00 0.00 49 1025.6
20260509084337 17 59 11.3 12.9 0.00 0.00 0.00 49 1025.6
20260509083835 17 98 11.3 11.3 0.00 0.00 0.00 49 1025.9
20260509083331 17 83 17.7 24.1 0.00 0.00 0.00 50 1025.9
20260509082829 17 89 8.0 9.7 0.00 0.00 0.00 52 1025.9
20260509081825 17 65 8.0 14.5 0.00 0.00 0.00 53 1025.9
20260509081322 17 71 17.7 22.5 0.00 0.00 0.00 53 1025.9
20260509080820 17 56 11.3 12.9 0.00 0.00 0.00 55 1025.9
20260509080317 17 57 3.2 4.8 0.00 0.00 0.00 59 1025.9
20260509075815 17 65 14.5 16.1 0.00 0.00 0.00 59 1025.9
20260509075313 17 75 9.7 12.9 0.00 0.00 0.00 61 1025.9
20260509074811 17 98 6.4 9.7 0.00 0.00 0.00 61 1025.9
20260509073806 16 52 4.8 4.8 0.00 0.00 0.00 65 1025.9
20260509073303 16 38 6.4 9.7 0.00 0.00 0.00 65 1025.9
20260509072800 16 15 4.8 6.4 0.00 0.00 0.00 66 1025.9
20260509072258 15 65 11.3 14.5 0.00 0.00 0.00 65 1025.9
20260509071755 15 353 9.7 11.3 0.00 0.00 0.00 65 1025.9
20260509071252 15 26 11.3 14.5 0.00 0.00 0.00 66 1025.9
20260509070750 15 74 4.8 8.0 0.00 0.00 0.00 68 1025.9
20260509070247 15 57 3.2 3.2 0.00 0.00 0.00 68 1025.9